GW6951 Weather Reports


time (UTC)temp
C
wind
direction
speed
KPH
gust
KPH
rain 1hr
cm
rain 24hr
cm
rain mn
cm
humidity
%
barometer
mb
20260503213430 23 139 1.6 3.2 0.00 0.00 0.00 30 1016.6
20260503212926 23 131 0.0 1.6 0.00 0.00 0.00 33 1016.4
20260503212423 23 112 3.2 3.2 0.00 0.00 0.00 30 1016.8
20260503211921 23 120 1.6 1.6 0.00 0.00 0.00 31 1016.9
20260503211417 22 165 1.6 1.6 0.00 0.00 0.00 29 1016.9
20260503210913 22 138 0.0 1.6 0.00 0.00 0.00 29 1016.9
20260503210410 22 146 0.0 3.2 0.00 0.00 0.00 30 1016.9
20260503205910 22 130 0.0 4.8 0.00 0.00 0.00 29 1017.0
20260503205408 23 148 0.0 3.2 0.00 0.00 0.00 31 1016.8
20260503204904 23 125 0.0 1.6 0.00 0.00 0.00 32 1016.8
20260503204401 22 33 3.2 4.8 0.00 0.00 0.00 28 1017.1
20260503203858 22 132 1.6 3.2 0.00 0.00 0.00 31 1017.1
20260503203355 22 119 1.6 1.6 0.00 0.00 0.00 30 1017.2
20260503202852 22 134 1.6 1.6 0.00 0.00 0.00 29 1017.4
20260503202350 23 119 1.6 3.2 0.00 0.00 0.00 29 1017.6
20260503201849 22 128 0.0 3.2 0.00 0.00 0.00 31 1017.4
20260503201345 22 130 0.0 1.6 0.00 0.00 0.00 33 1017.6
20260503200843 23 112 1.6 3.2 0.00 0.00 0.00 31 1017.5
20260503200338 23 161 1.6 3.2 0.00 0.00 0.00 28 1017.8
20260503195836 23 134 1.6 1.6 0.00 0.00 0.00 28 1018.0
20260503195332 23 149 0.0 1.6 0.00 0.00 0.00 27 1017.9
20260503194830 22 115 1.6 3.2 0.00 0.00 0.00 30 1017.9
20260503194325 22 126 1.6 3.2 0.00 0.00 0.00 29 1017.9
20260503193822 22 132 1.6 4.8 0.00 0.00 0.00 29 1018.0
20260503193318 21 162 3.2 4.8 0.00 0.00 0.00 28 1018.2
20260503192814 21 267 4.8 4.8 0.00 0.00 0.00 27 1018.3
20260503192309 22 35 4.8 11.3 0.00 0.00 0.00 25 1018.3
20260503191806 22 141 0.0 1.6 0.00 0.00 0.00 28 1018.4
20260503191303 22 153 0.0 4.8 0.00 0.00 0.00 29 1018.5
20260503190800 21 143 0.0 9.7 0.00 0.00 0.00 30 1018.3
20260503190257 21 120 1.6 3.2 0.00 0.00 0.00 29 1018.6
20260503185754 22 40 0.0 1.6 0.00 0.00 0.00 26 1018.7
20260503185249 22 125 1.6 4.8 0.00 0.00 0.00 27 1018.7
20260503184744 22 95 1.6 6.4 0.00 0.00 0.00 28 1018.6
20260503184241 22 148 0.0 3.2 0.00 0.00 0.00 27 1018.7
20260503183737 22 127 0.0 1.6 0.00 0.00 0.00 31 1018.9
20260503183235 21 162 0.0 3.2 0.00 0.00 0.00 28 1018.7
20260503182732 21 160 1.6 4.8 0.00 0.00 0.00 28 1019.1
20260503182231 20 71 1.6 4.8 0.00 0.00 0.00 30 1019.2
20260503181727 20 120 3.2 4.8 0.00 0.00 0.00 27 1019.2
20260503181224 20 349 4.8 6.4 0.00 0.00 0.00 31 1019.3
20260503180720 20 121 1.6 4.8 0.00 0.00 0.00 28 1019.3
20260503180219 20 152 1.6 4.8 0.00 0.00 0.00 27 1019.4
20260503175715 20 336 3.2 4.8 0.00 0.00 0.00 30 1019.5
20260503175214 20 117 1.6 6.4 0.00 0.00 0.00 26 1019.4
20260503174709 20 94 0.0 3.2 0.00 0.00 0.00 28 1019.3
20260503174207 19 118 0.0 1.6 0.00 0.00 0.00 33 1019.4
20260503173708 18 161 3.2 3.2 0.00 0.00 0.00 29 1019.7
20260503173204 18 2 6.4 14.5 0.00 0.00 0.00 31 1019.9
20260503172701 18 189 3.2 6.4 0.00 0.00 0.00 29 1019.7
20260503172158 18 39 3.2 12.9 0.00 0.00 0.00 28 1020.0
20260503171654 18 52 3.2 4.8 0.00 0.00 0.00 31 1020.1
20260503171152 18 294 1.6 11.3 0.00 0.00 0.00 28 1020.3
20260503170648 18 253 6.4 14.5 0.00 0.00 0.00 29 1020.1
20260503170145 17 117 1.6 9.7 0.00 0.00 0.00 28 1020.4
20260503160107 16 45 1.6 4.8 0.00 0.00 0.00 31 1021.1
20260503150537 15 88 1.6 3.2 0.00 0.00 0.00 33 1021.4
20260503130927 10 38 3.2 9.7 0.00 0.00 0.00 52 1021.2
20260503130425 10 10 1.6 6.4 0.00 0.00 0.00 53 1021.3
20260503110326 3 160 3.2 3.2 0.00 0.00 0.00 83 1020.5
20260503100252 3 136 1.6 3.2 0.00 0.00 0.00 85 1019.7
20260503090218 4 160 1.6 3.2 0.00 0.00 0.00 86 1019.3
20260503081151 3 110 0.0 3.2 0.00 0.00 0.00 88 1018.6
20260503080646 3 115 0.0 1.6 0.00 0.00 0.00 87 1018.7
20260503080144 3 117 1.6 1.6 0.00 0.00 0.00 86 1018.9
20260503072620 5 113 0.0 0.0 0.00 0.00 0.00 81 1018.4
20260503072117 5 167 3.2 3.2 0.00 0.00 0.00 80 1018.5
20260503071614 5 165 1.6 3.2 0.00 0.00 0.00 82 1018.2
20260503071111 5 135 0.0 0.0 0.00 0.00 0.00 82 1018.1
20260503070608 5 184 1.6 3.2 0.00 0.00 0.00 81 1018.4
20260503070106 4 146 1.6 3.2 0.00 0.00 0.00 84 1018.3
20260503055032 6 123 0.0 1.6 0.00 0.00 0.00 75 1018.1
20260503054528 6 122 0.0 1.6 0.00 0.00 0.00 75 1017.9
20260503054025 6 141 0.0 1.6 0.00 0.00 0.00 73 1017.9
20260503053523 6 138 0.0 1.6 0.00 0.00 0.00 70 1017.9
20260503053020 6 144 1.6 1.6 0.00 0.00 0.00 72 1018.0
20260503052517 6 130 0.0 1.6 0.00 0.00 0.00 72 1018.1
20260503052013 7 138 1.6 3.2 0.00 0.00 0.00 71 1018.1
20260503051509 6 173 3.2 4.8 0.00 0.00 0.00 68 1017.9
20260503051007 6 156 1.6 3.2 0.00 0.00 0.00 73 1018.0
20260503050502 6 162 3.2 3.2 0.00 0.00 0.00 71 1017.9
20260503050000 6 158 1.6 3.2 0.00 0.00 0.00 70 1017.9
20260503045457 6 150 1.6 1.6 0.00 0.00 0.00 73 1018.0
20260503044954 6 115 0.0 1.6 0.00 0.00 0.00 71 1017.8
20260503044451 6 156 0.0 1.6 0.00 0.00 0.00 68 1018.0
20260503043948 6 113 0.0 1.6 0.00 0.00 0.00 73 1017.9
20260503043444 6 111 0.0 1.6 0.00 0.00 0.00 75 1017.7
20260503042941 6 115 0.0 1.6 0.00 0.00 0.00 73 1017.6
20260503042438 6 119 0.0 0.0 0.00 0.00 0.00 73 1017.5
20260503041935 6 119 0.0 0.0 0.00 0.00 0.00 70 1017.7
20260503041431 6 119 0.0 0.0 0.00 0.00 0.00 74 1017.6
20260503040928 6 119 0.0 1.6 0.00 0.00 0.00 73 1017.5
20260503040426 7 141 0.0 1.6 0.00 0.00 0.00 68 1017.4
20260503035923 7 159 1.6 1.6 0.00 0.00 0.00 66 1017.3
20260503035420 6 148 0.0 1.6 0.00 0.00 0.00 69 1017.2
20260503034917 7 148 0.0 1.6 0.00 0.00 0.00 68 1017.2
20260503034415 7 149 0.0 1.6 0.00 0.00 0.00 65 1017.2
20260503033912 7 145 0.0 1.6 0.00 0.00 0.00 65 1017.2
20260503033409 7 145 0.0 1.6 0.00 0.00 0.00 67 1017.0
20260503032907 7 144 0.0 0.0 0.00 0.00 0.00 65 1017.1
20260503032406 7 145 0.0 0.0 0.00 0.00 0.00 67 1017.1
20260503031903 7 128 0.0 1.6 0.00 0.00 0.00 67 1017.2
20260503031400 7 140 0.0 1.6 0.00 0.00 0.00 69 1016.9
20260503030856 7 134 0.0 3.2 0.00 0.00 0.00 67 1016.9
20260503030353 8 146 0.0 0.0 0.00 0.00 0.00 65 1016.9
20260503025849 7 31 4.8 4.8 0.00 0.00 0.00 66 1016.8
20260503025347 7 84 1.6 1.6 0.00 0.00 0.00 66 1016.8
20260503024844 8 144 0.0 1.6 0.00 0.00 0.00 63 1016.6
20260503024341 8 147 0.0 1.6 0.00 0.00 0.00 60 1016.6
20260503023837 8 149 0.0 1.6 0.00 0.00 0.00 58 1016.7
20260503023335 8 148 0.0 1.6 0.00 0.00 0.00 62 1016.7
20260503022831 8 148 0.0 1.6 0.00 0.00 0.00 62 1016.5
20260503022326 9 122 0.0 1.6 0.00 0.00 0.00 59 1016.5
20260503021823 9 121 0.0 1.6 0.00 0.00 0.00 58 1016.7
20260503021319 10 138 0.0 0.0 0.00 0.00 0.00 58 1016.6
20260503020817 10 95 1.6 3.2 0.00 0.00 0.00 57 1016.6
20260503020314 10 148 0.0 1.6 0.00 0.00 0.00 56 1016.3
20260503015810 10 137 0.0 1.6 0.00 0.00 0.00 55 1016.6
20260503015308 10 133 0.0 1.6 0.00 0.00 0.00 53 1016.3
20260503014803 10 118 0.0 1.6 0.00 0.00 0.00 52 1016.2
20260503014301 11 98 1.6 1.6 0.00 0.00 0.00 51 1016.0
20260503013758 11 105 0.0 1.6 0.00 0.00 0.00 47 1015.8
20260503013255 11 65 0.0 1.6 0.00 0.00 0.00 48 1015.8
20260503012753 12 150 0.0 1.6 0.00 0.00 0.00 44 1015.9
20260503012250 12 149 1.6 4.8 0.00 0.00 0.00 42 1015.6
20260503011747 12 148 0.0 1.6 0.00 0.00 0.00 42 1015.6
20260503011244 13 231 3.2 4.8 0.00 0.00 0.00 37 1015.5
20260503010740 13 96 1.6 4.8 0.00 0.00 0.00 37 1015.5
20260503010237 13 92 1.6 6.4 0.00 0.00 0.00 36 1015.3
20260503005734 13 101 0.0 3.2 0.00 0.00 0.00 39 1015.4
20260503005231 13 125 0.0 0.0 0.00 0.00 0.00 36 1015.1
20260503004727 14 93 3.2 3.2 0.00 0.00 0.00 34 1015.0
20260503004226 14 22 8.0 11.3 0.00 0.00 0.00 34 1015.0
20260503003723 13 110 0.0 1.6 0.00 0.00 0.00 35 1015.2
20260503003220 14 106 0.0 3.2 0.00 0.00 0.00 34 1014.6
20260503002716 15 114 0.0 4.8 0.00 0.00 0.00 33 1014.7
20260503002213 15 340 6.4 11.3 0.00 0.00 0.00 32 1014.6
20260503001709 15 57 3.2 9.7 0.00 0.00 0.00 33 1014.3
20260503001206 15 21 6.4 14.5 0.00 0.00 0.00 31 1014.3
20260503000704 15 44 12.9 17.7 0.00 0.00 0.00 31 1014.2
20260503000203 15 108 3.2 12.9 0.00 0.00 0.00 32 1014.1
20260502235658 15 120 3.2 6.4 0.00 0.00 0.00 32 1014.1
20260502235155 15 355 4.8 11.3 0.00 0.00 0.00 33 1014.2
20260502234651 15 62 3.2 9.7 0.00 0.00 0.00 33 1014.1
20260502234149 15 94 3.2 4.8 0.00 0.00 0.00 32 1014.0
20260502233645 15 66 1.6 4.8 0.00 0.00 0.00 32 1013.9
20260502233142 15 110 1.6 9.7 0.00 0.00 0.00 31 1013.9
20260502232637 15 359 4.8 11.3 0.00 0.00 0.00 30 1013.6
20260502232135 16 77 3.2 11.3 0.00 0.00 0.00 30 1013.7
20260502231631 16 53 4.8 6.4 0.00 0.00 0.00 30 1013.5
20260502231130 16 357 3.2 14.5 0.00 0.00 0.00 30 1013.7
20260502230628 16 279 8.0 14.5 0.00 0.00 0.00 29 1013.5
20260502230126 16 35 3.2 17.7 0.00 0.00 0.00 30 1013.6
20260502225621 17 356 6.4 17.7 0.00 0.00 0.00 28 1013.5
20260502225118 17 56 3.2 9.7 0.00 0.00 0.00 30 1013.5
20260502224614 17 69 4.8 11.3 0.00 0.00 0.00 29 1013.5
20260502224111 17 3 6.4 6.4 0.00 0.00 0.00 29 1013.5
20260502223609 17 139 1.6 11.3 0.00 0.00 0.00 31 1013.4
20260502223108 17 351 6.4 11.3 0.00 0.00 0.00 29 1013.4
20260502222604 17 10 9.7 16.1 0.00 0.00 0.00 29 1013.4
20260502222101 17 37 8.0 11.3 0.00 0.00 0.00 31 1013.4
20260502221556 17 58 3.2 12.9 0.00 0.00 0.00 29 1013.2
20260502221054 17 36 8.0 17.7 0.00 0.00 0.00 29 1013.2
20260502220549 17 359 3.2 12.9 0.00 0.00 0.00 32 1013.0
20260502220046 17 45 4.8 16.1 0.00 0.00 0.00 30 1012.8
20260502215544 16 317 9.7 12.9 0.00 0.00 0.00 29 1012.9
20260502215040 17 72 4.8 12.9 0.00 0.00 0.00 32 1012.8
20260502214537 17 44 3.2 4.8 0.00 0.00 0.00 32 1012.6
20260502214035 18 25 4.8 14.5 0.00 0.00 0.00 29 1012.4